Multibeam Report for CNTL14RR


Ship Name: Roger Revelle
Chief Scientist: Miller, Stephen
Scripps Institution of Oceanography
Source Organization: University of California, Scripps Institution of Oceanography (UC/SIO)
Start Date: 2003-08-25
End Date: 2003-09-02


View ISO Metadata

Visit the full NCEI Bathymetry Viewer


Multibeam Bathymetry

Cruise Details

Project: Centennial Expedition
Instrument: Simrad EM120

Data Quality

Number of Files: 243
Number of Records: 33725
BATHYMETRY DATA Quantity Percentage
Number of Beams 6441475 100%
Number of Good Beams 6153691 95.53%
Number of Zero Beams 287784 4.47%
Number of Flagged Beams 0 0%

Navigation Totals

Total Time: 119.5065 hours
Total Track Length: 3062.448 km
Average Speed: 25.626 km/hr (13.8369 knots)

Cruise Bounds

Northern Extent: 43.683044
Southern Extent: 21.238075
Western Extent: -157.88127
Eastern Extent: -126.423225

Limits

Minimum Sonar Depth 3.01 Maximum Sonar Depth 6553.6001
Minimum Altitude 0 Maximum Altitude 7120.25
Minimum Depth 22.28 Maximum Depth 7200.29

File Information

Full Resolution Bathymetry as collected (raw): 121

Files File Size Description
0001_20030826_021746p.mb57.gz 7.59MB Simrad multibeam processing format
0001_20030826_031746p.mb57.gz 8.35MB Simrad multibeam processing format
0001_20030826_041746p.mb57.gz 8.34MB Simrad multibeam processing format
0001_20030826_051746p.mb57.gz 9.27MB Simrad multibeam processing format
0001_20030826_061746p.mb57.gz 8.16MB Simrad multibeam processing format
0001_20030826_071746p.mb57.gz 7.57MB Simrad multibeam processing format
0001_20030826_081746p.mb57.gz 6.52MB Simrad multibeam processing format
0001_20030826_091746p.mb57.gz 6.40MB Simrad multibeam processing format
0001_20030826_101746p.mb57.gz 6.33MB Simrad multibeam processing format
0001_20030826_111746p.mb57.gz 6.48MB Simrad multibeam processing format
0001_20030826_121746p.mb57.gz 6.40MB Simrad multibeam processing format
0001_20030826_131746p.mb57.gz 6.33MB Simrad multibeam processing format
0001_20030826_141746p.mb57.gz 6.34MB Simrad multibeam processing format
0001_20030826_151746p.mb57.gz 11.39MB Simrad multibeam processing format
0001_20030826_161746p.mb57.gz 11.41MB Simrad multibeam processing format
0001_20030826_171746p.mb57.gz 11.43MB Simrad multibeam processing format
0001_20030826_181746p.mb57.gz 11.45MB Simrad multibeam processing format
0001_20030826_191746p.mb57.gz 11.46MB Simrad multibeam processing format
0001_20030826_201746p.mb57.gz 11.43MB Simrad multibeam processing format
0001_20030826_211746p.mb57.gz 4.39MB Simrad multibeam processing format
0003_20030828_001745p.mb57.gz 5.06MB Simrad multibeam processing format
0003_20030828_011745p.mb57.gz 5.03MB Simrad multibeam processing format
0003_20030828_021745p.mb57.gz 5.03MB Simrad multibeam processing format
0003_20030828_031745p.mb57.gz 3.26MB Simrad multibeam processing format
0003_20030828_041745p.mb57.gz 9.13MB Simrad multibeam processing format
0003_20030828_051745p.mb57.gz 9.12MB Simrad multibeam processing format
0003_20030828_061745p.mb57.gz 9.08MB Simrad multibeam processing format
0003_20030828_071745p.mb57.gz 9.10MB Simrad multibeam processing format
0003_20030828_081745p.mb57.gz 9.06MB Simrad multibeam processing format
0003_20030828_091745p.mb57.gz 9.06MB Simrad multibeam processing format
0003_20030828_101745p.mb57.gz 9.09MB Simrad multibeam processing format
0003_20030828_111745p.mb57.gz 9.09MB Simrad multibeam processing format
0003_20030828_121745p.mb57.gz 9.09MB Simrad multibeam processing format
0003_20030828_131745p.mb57.gz 9.10MB Simrad multibeam processing format
0003_20030828_141745p.mb57.gz 9.09MB Simrad multibeam processing format
0003_20030828_151745p.mb57.gz 9.10MB Simrad multibeam processing format
0003_20030828_161745p.mb57.gz 9.11MB Simrad multibeam processing format
0003_20030828_171745p.mb57.gz 9.11MB Simrad multibeam processing format
0003_20030828_181745p.mb57.gz 9.09MB Simrad multibeam processing format
0003_20030828_191745p.mb57.gz 9.11MB Simrad multibeam processing format
0003_20030828_201745p.mb57.gz 9.09MB Simrad multibeam processing format
0003_20030828_211745p.mb57.gz 5.58MB Simrad multibeam processing format
0004_20030828_222236p.mb57.gz 9.03MB Simrad multibeam processing format
0004_20030828_232236p.mb57.gz 8.95MB Simrad multibeam processing format
0004_20030828_242236p.mb57.gz 8.96MB Simrad multibeam processing format
0004_20030829_012236p.mb57.gz 8.94MB Simrad multibeam processing format
0004_20030829_022236p.mb57.gz 8.94MB Simrad multibeam processing format
0004_20030829_032236p.mb57.gz 105.9KB Simrad multibeam processing format
0005_20030829_042450p.mb57.gz 0.84MB Simrad multibeam processing format
0006_20030829_043033p.mb57.gz 8.94MB Simrad multibeam processing format
0007_20030829_053034p.mb57.gz 8.96MB Simrad multibeam processing format
0008_20030829_063034p.mb57.gz 8.98MB Simrad multibeam processing format
0009_20030829_073034p.mb57.gz 8.96MB Simrad multibeam processing format
0010_20030829_083034p.mb57.gz 8.97MB Simrad multibeam processing format
0011_20030829_093034p.mb57.gz 8.97MB Simrad multibeam processing format
0012_20030829_103034p.mb57.gz 8.89MB Simrad multibeam processing format
0013_20030829_113034p.mb57.gz 9.07MB Simrad multibeam processing format
0014_20030829_123034p.mb57.gz 8.96MB Simrad multibeam processing format
0015_20030829_133034p.mb57.gz 8.98MB Simrad multibeam processing format
0016_20030829_143034p.mb57.gz 8.97MB Simrad multibeam processing format
0017_20030829_153034p.mb57.gz 8.99MB Simrad multibeam processing format
0018_20030829_163034p.mb57.gz 8.98MB Simrad multibeam processing format
0019_20030829_173034p.mb57.gz 8.98MB Simrad multibeam processing format
0020_20030829_183034p.mb57.gz 8.96MB Simrad multibeam processing format
0021_20030829_193034p.mb57.gz 8.94MB Simrad multibeam processing format
0022_20030829_203034p.mb57.gz 8.97MB Simrad multibeam processing format
0024_20030829_223157p.mb57.gz 3.26MB Simrad multibeam processing format
0025_20030829_225405p.mb57.gz 8.94MB Simrad multibeam processing format
0026_20030829_235405p.mb57.gz 8.95MB Simrad multibeam processing format
0027_20030830_005405p.mb57.gz 8.91MB Simrad multibeam processing format
0028_20030830_015406p.mb57.gz 8.88MB Simrad multibeam processing format
0029_20030830_025406p.mb57.gz 8.90MB Simrad multibeam processing format
0030_20030830_035406p.mb57.gz 9.00MB Simrad multibeam processing format
0031_20030830_045406p.mb57.gz 8.88MB Simrad multibeam processing format
0032_20030830_055406p.mb57.gz 8.73MB Simrad multibeam processing format
0033_20030830_065406p.mb57.gz 8.85MB Simrad multibeam processing format
0034_20030830_075406p.mb57.gz 8.98MB Simrad multibeam processing format
0035_20030830_085406p.mb57.gz 8.97MB Simrad multibeam processing format
0036_20030830_095406p.mb57.gz 8.97MB Simrad multibeam processing format
0037_20030830_105406p.mb57.gz 8.88MB Simrad multibeam processing format
0038_20030830_115406p.mb57.gz 9.12MB Simrad multibeam processing format
0039_20030830_125406p.mb57.gz 9.08MB Simrad multibeam processing format
0040_20030830_135406p.mb57.gz 9.11MB Simrad multibeam processing format
0041_20030830_145406p.mb57.gz 9.13MB Simrad multibeam processing format
0042_20030830_155406p.mb57.gz 9.10MB Simrad multibeam processing format
0043_20030830_165406p.mb57.gz 9.10MB Simrad multibeam processing format
0044_20030830_175406p.mb57.gz 9.10MB Simrad multibeam processing format
0045_20030830_185407p.mb57.gz 9.11MB Simrad multibeam processing format
0046_20030830_195407p.mb57.gz 82.5KB Simrad multibeam processing format
0047_20030830_200312p.mb57.gz 5.76MB Simrad multibeam processing format
0048_20030830_204149p.mb57.gz 9.09MB Simrad multibeam processing format
0049_20030830_214149p.mb57.gz 9.05MB Simrad multibeam processing format
0050_20030830_224149p.mb57.gz 9.09MB Simrad multibeam processing format
0051_20030830_234149p.mb57.gz 9.18MB Simrad multibeam processing format
0052_20030831_004149p.mb57.gz 9.32MB Simrad multibeam processing format
0053_20030831_014149p.mb57.gz 9.31MB Simrad multibeam processing format
0054_20030831_024149p.mb57.gz 9.30MB Simrad multibeam processing format
0055_20030831_034149p.mb57.gz 9.34MB Simrad multibeam processing format
0056_20030831_044149p.mb57.gz 9.34MB Simrad multibeam processing format
0057_20030831_054149p.mb57.gz 9.23MB Simrad multibeam processing format
0058_20030831_064149p.mb57.gz 9.33MB Simrad multibeam processing format
0059_20030831_074149p.mb57.gz 9.27MB Simrad multibeam processing format
0060_20030831_084149p.mb57.gz 9.22MB Simrad multibeam processing format
0061_20030831_094149p.mb57.gz 9.34MB Simrad multibeam processing format
0062_20030831_104150p.mb57.gz 9.31MB Simrad multibeam processing format
0063_20030831_114150p.mb57.gz 9.37MB Simrad multibeam processing format
0064_20030831_124150p.mb57.gz 9.18MB Simrad multibeam processing format
0065_20030831_134150p.mb57.gz 9.35MB Simrad multibeam processing format
0066_20030831_144150p.mb57.gz 33.61MB Simrad multibeam processing format
0067_20030831_205523p.mb57.gz 8.94MB Simrad multibeam processing format
0068_20030831_215523p.mb57.gz 5.32MB Simrad multibeam processing format
0069_20030831_225523p.mb57.gz 5.37MB Simrad multibeam processing format
0070_20030831_235523p.mb57.gz 27.4KB Simrad multibeam processing format
0071_20030901_004004p.mb57.gz 5.07MB Simrad multibeam processing format
0072_20030901_014005p.mb57.gz 5.39MB Simrad multibeam processing format
0073_20030901_024005p.mb57.gz 5.01MB Simrad multibeam processing format
0074_20030901_034005p.mb57.gz 5.44MB Simrad multibeam processing format
0075_20030901_044005p.mb57.gz 5.00MB Simrad multibeam processing format
0076_20030901_054005p.mb57.gz 4.48MB Simrad multibeam processing format
0077_20030901_064005p.mb57.gz 4.68MB Simrad multibeam processing format
0078_20030901_074005p.mb57.gz 2.87MB Simrad multibeam processing format

Metadata Files: 122

Files File Size Description
CNTL14RR_Multibeam.xml NGDC created ISO metadata
0001_20030826_021746p.mb57.mif 12.9KB Metadata I?? File for each individual data file
0001_20030826_031746p.mb57.mif 12.9KB Metadata I?? File for each individual data file
0001_20030826_041746p.mb57.mif 12.9KB Metadata I?? File for each individual data file
0001_20030826_051746p.mb57.mif 12.9KB Metadata I?? File for each individual data file
0001_20030826_061746p.mb57.mif 12.9KB Metadata I?? File for each individual data file
0001_20030826_071746p.mb57.mif 12.9KB Metadata I?? File for each individual data file
0001_20030826_081746p.mb57.mif 12.9KB Metadata I?? File for each individual data file
0001_20030826_101746p.mb57.mif 12.9KB Metadata I?? File for each individual data file
0001_20030826_111746p.mb57.mif 12.9KB Metadata I?? File for each individual data file
0001_20030826_121746p.mb57.mif 12.9KB Metadata I?? File for each individual data file
0001_20030826_131746p.mb57.mif 12.9KB Metadata I?? File for each individual data file
0001_20030826_141746p.mb57.mif 12.9KB Metadata I?? File for each individual data file
0001_20030826_151746p.mb57.mif 12.9KB Metadata I?? File for each individual data file
0001_20030826_161746p.mb57.mif 12.9KB Metadata I?? File for each individual data file
0001_20030826_171746p.mb57.mif 12.9KB Metadata I?? File for each individual data file
0001_20030826_181746p.mb57.mif 12.9KB Metadata I?? File for each individual data file
0001_20030826_191746p.mb57.mif 12.9KB Metadata I?? File for each individual data file
0001_20030826_201746p.mb57.mif 12.9KB Metadata I?? File for each individual data file
0001_20030826_211746p.mb57.mif 12.9KB Metadata I?? File for each individual data file
0003_20030828_001745p.mb57.mif 12.9KB Metadata I?? File for each individual data file
0003_20030828_011745p.mb57.mif 12.9KB Metadata I?? File for each individual data file
0003_20030828_021745p.mb57.mif 12.9KB Metadata I?? File for each individual data file
0003_20030828_031745p.mb57.mif 12.9KB Metadata I?? File for each individual data file
0003_20030828_041745p.mb57.mif 12.9KB Metadata I?? File for each individual data file
0003_20030828_051745p.mb57.mif 12.9KB Metadata I?? File for each individual data file
0003_20030828_061745p.mb57.mif 12.9KB Metadata I?? File for each individual data file
0003_20030828_071745p.mb57.mif 12.9KB Metadata I?? File for each individual data file
0003_20030828_081745p.mb57.mif 12.9KB Metadata I?? File for each individual data file
0003_20030828_091745p.mb57.mif 12.9KB Metadata I?? File for each individual data file
0003_20030828_101745p.mb57.mif 12.9KB Metadata I?? File for each individual data file
0003_20030828_111745p.mb57.mif 12.9KB Metadata I?? File for each individual data file
0003_20030828_121745p.mb57.mif 12.9KB Metadata I?? File for each individual data file
0003_20030828_131745p.mb57.mif 12.9KB Metadata I?? File for each individual data file
0003_20030828_141745p.mb57.mif 12.9KB Metadata I?? File for each individual data file
0003_20030828_151745p.mb57.mif 12.9KB Metadata I?? File for each individual data file
0003_20030828_161745p.mb57.mif 12.9KB Metadata I?? File for each individual data file
0003_20030828_171745p.mb57.mif 12.9KB Metadata I?? File for each individual data file
0003_20030828_181745p.mb57.mif 12.9KB Metadata I?? File for each individual data file
0003_20030828_191745p.mb57.mif 12.9KB Metadata I?? File for each individual data file
0003_20030828_201745p.mb57.mif 12.9KB Metadata I?? File for each individual data file
0003_20030828_211745p.mb57.mif 12.9KB Metadata I?? File for each individual data file
0004_20030828_222236p.mb57.mif 12.9KB Metadata I?? File for each individual data file
0004_20030828_232236p.mb57.mif 12.9KB Metadata I?? File for each individual data file
0004_20030828_242236p.mb57.mif 12.9KB Metadata I?? File for each individual data file
0004_20030829_012236p.mb57.mif 12.9KB Metadata I?? File for each individual data file
0004_20030829_022236p.mb57.mif 12.9KB Metadata I?? File for each individual data file
0004_20030829_032236p.mb57.mif 12.9KB Metadata I?? File for each individual data file
0005_20030829_042450p.mb57.mif 12.9KB Metadata I?? File for each individual data file
0006_20030829_043033p.mb57.mif 12.9KB Metadata I?? File for each individual data file
0007_20030829_053034p.mb57.mif 12.9KB Metadata I?? File for each individual data file
0008_20030829_063034p.mb57.mif 12.9KB Metadata I?? File for each individual data file
0009_20030829_073034p.mb57.mif 12.9KB Metadata I?? File for each individual data file
0010_20030829_083034p.mb57.mif 12.9KB Metadata I?? File for each individual data file
0011_20030829_093034p.mb57.mif 12.9KB Metadata I?? File for each individual data file
0012_20030829_103034p.mb57.mif 12.9KB Metadata I?? File for each individual data file
0013_20030829_113034p.mb57.mif 12.9KB Metadata I?? File for each individual data file
0014_20030829_123034p.mb57.mif 12.9KB Metadata I?? File for each individual data file
0015_20030829_133034p.mb57.mif 12.9KB Metadata I?? File for each individual data file
0016_20030829_143034p.mb57.mif 12.9KB Metadata I?? File for each individual data file
0017_20030829_153034p.mb57.mif 12.9KB Metadata I?? File for each individual data file
0018_20030829_163034p.mb57.mif 12.9KB Metadata I?? File for each individual data file
0019_20030829_173034p.mb57.mif 12.9KB Metadata I?? File for each individual data file
0020_20030829_183034p.mb57.mif 12.9KB Metadata I?? File for each individual data file
0021_20030829_193034p.mb57.mif 12.9KB Metadata I?? File for each individual data file
0022_20030829_203034p.mb57.mif 12.9KB Metadata I?? File for each individual data file
0024_20030829_223157p.mb57.mif 12.9KB Metadata I?? File for each individual data file
0025_20030829_225405p.mb57.mif 12.9KB Metadata I?? File for each individual data file
0026_20030829_235405p.mb57.mif 12.9KB Metadata I?? File for each individual data file
0027_20030830_005405p.mb57.mif 12.9KB Metadata I?? File for each individual data file
0028_20030830_015406p.mb57.mif 12.9KB Metadata I?? File for each individual data file
0029_20030830_025406p.mb57.mif 12.9KB Metadata I?? File for each individual data file
0030_20030830_035406p.mb57.mif 12.9KB Metadata I?? File for each individual data file
0031_20030830_045406p.mb57.mif 12.9KB Metadata I?? File for each individual data file
0032_20030830_055406p.mb57.mif 12.9KB Metadata I?? File for each individual data file
0033_20030830_065406p.mb57.mif 12.9KB Metadata I?? File for each individual data file
0034_20030830_075406p.mb57.mif 12.9KB Metadata I?? File for each individual data file
0035_20030830_085406p.mb57.mif 12.9KB Metadata I?? File for each individual data file
0036_20030830_095406p.mb57.mif 12.9KB Metadata I?? File for each individual data file
0037_20030830_105406p.mb57.mif 12.9KB Metadata I?? File for each individual data file
0038_20030830_115406p.mb57.mif 12.9KB Metadata I?? File for each individual data file
0039_20030830_125406p.mb57.mif 12.9KB Metadata I?? File for each individual data file
0040_20030830_135406p.mb57.mif 12.9KB Metadata I?? File for each individual data file
0041_20030830_145406p.mb57.mif 12.9KB Metadata I?? File for each individual data file
0042_20030830_155406p.mb57.mif 12.9KB Metadata I?? File for each individual data file
0043_20030830_165406p.mb57.mif 12.9KB Metadata I?? File for each individual data file
0044_20030830_175406p.mb57.mif 12.9KB Metadata I?? File for each individual data file
0045_20030830_185407p.mb57.mif 12.9KB Metadata I?? File for each individual data file
0046_20030830_195407p.mb57.mif 12.9KB Metadata I?? File for each individual data file
0047_20030830_200312p.mb57.mif 12.9KB Metadata I?? File for each individual data file
0048_20030830_204149p.mb57.mif 12.9KB Metadata I?? File for each individual data file
0049_20030830_214149p.mb57.mif 12.9KB Metadata I?? File for each individual data file
0050_20030830_224149p.mb57.mif 12.9KB Metadata I?? File for each individual data file
0051_20030830_234149p.mb57.mif 12.9KB Metadata I?? File for each individual data file
0052_20030831_004149p.mb57.mif 12.9KB Metadata I?? File for each individual data file
0053_20030831_014149p.mb57.mif 12.9KB Metadata I?? File for each individual data file
0054_20030831_024149p.mb57.mif 12.9KB Metadata I?? File for each individual data file
0055_20030831_034149p.mb57.mif 12.9KB Metadata I?? File for each individual data file
0056_20030831_044149p.mb57.mif 12.9KB Metadata I?? File for each individual data file
0057_20030831_054149p.mb57.mif 12.9KB Metadata I?? File for each individual data file
0058_20030831_064149p.mb57.mif 12.9KB Metadata I?? File for each individual data file
0059_20030831_074149p.mb57.mif 12.9KB Metadata I?? File for each individual data file
0060_20030831_084149p.mb57.mif 12.9KB Metadata I?? File for each individual data file
0061_20030831_094149p.mb57.mif 12.9KB Metadata I?? File for each individual data file
0062_20030831_104150p.mb57.mif 12.9KB Metadata I?? File for each individual data file
0063_20030831_114150p.mb57.mif 12.9KB Metadata I?? File for each individual data file
0064_20030831_124150p.mb57.mif 12.9KB Metadata I?? File for each individual data file
0065_20030831_134150p.mb57.mif 12.9KB Metadata I?? File for each individual data file
0066_20030831_144150p.mb57.mif 12.9KB Metadata I?? File for each individual data file
0067_20030831_205523p.mb57.mif 12.9KB Metadata I?? File for each individual data file
0068_20030831_215523p.mb57.mif 12.9KB Metadata I?? File for each individual data file
0069_20030831_225523p.mb57.mif 12.9KB Metadata I?? File for each individual data file
0070_20030831_235523p.mb57.mif 12.9KB Metadata I?? File for each individual data file
0071_20030901_004004p.mb57.mif 12.9KB Metadata I?? File for each individual data file
0072_20030901_014005p.mb57.mif 12.9KB Metadata I?? File for each individual data file
0073_20030901_024005p.mb57.mif 12.9KB Metadata I?? File for each individual data file
0074_20030901_034005p.mb57.mif 12.9KB Metadata I?? File for each individual data file
0075_20030901_044005p.mb57.mif 12.9KB Metadata I?? File for each individual data file
0076_20030901_054005p.mb57.mif 12.9KB Metadata I?? File for each individual data file
0077_20030901_064005p.mb57.mif 12.9KB Metadata I?? File for each individual data file
0078_20030901_074005p.mb57.mif 12.9KB Metadata I?? File for each individual data file
CNTL14RR.pdf 305.4KB PDF metadata file